Location: Helsinki
(60.1699°N, 24.9384°E)
Time: 21:46:22
(UTC+02:00)

Transit 2A Rocket - Pass Details

Date: 25 September 2023
Orbit: 593 x 903 km, 66.7° (Epoch: 29 November)

Event Time Altitude Azimuth Distance (km) Brightness Sun altitude
Rises 18:53:37 0° 261° (W) 3,222 11.5 1.5°
Reaches altitude 10° 18:56:12 10° 268° (W) 2,244 9.9 1.2°
Maximum altitude 19:01:05 46° 342° (NNW) 934 5.7 0.5°
Drops below altitude 10° 19:05:35 10° 56° (NE) 2,066 6.7 0.0°
Sets 19:07:53 0° 63° (ENE) 2,939 7.5 -0.3°
